Forside
METAR-TAF:

METAR-TAF

Lufthavne :

Tomahawk Regional Airport

Tomahawk, Wisconsin, USA

Breddekreds: 45-28-08N, længdekreds: 089-48-20W, højde: 453 m

Aktuelle vejr

Denne rapport blev lavet for 28 minutter siden, kl. 00:35 UTC
Vind 5 kt fra nordvest
Temperatur 13°C
Fugtighed 51%
Tryk 1012 hPa
Sigt: 16.1 km
Spredte skyer i en højde af 8000 ft

METAR: KTKV 220035Z AUTO 31005KT 10SM SCT080 13/03 A2988 RMK AO2 T01330031 PWINO

Tid: 20:03 (01:03 UTC)


TAF: fraværende

Vejrobservationer og prognoser fra mere end 4000 lufthavne (METAR og TAF).

De gule og røde prikker repræsenterer de meteorologiske stationer.

Flyt musen over at se navnet på stationen.

Så klik over at se vejr observationer og prognoser.

At skifte det kort: Klik på de grønne knapper med et sort kors for at zoome ind; på den grønne knap med en bindestreg for at zoome ud; eller på de grønne pile for tilstødende kort.


METAR-TAF: